381  
ASUS42 KTAE 051016  
RWRTAE  
RWRTAE  
NORTH FLORIDA/SOUTH ALABAMA/SOUTHWEST GEORGIA WEATHER ROUNDUP  
NATIONAL WEATHER SERVICE TALLAHASSEE FLORIDA  
500 AM EST FRI MAR 05 2021  
 
NOTE: "FAIR" INDICATES FEW OR NO CLOUDS BELOW 12,000 FEET WITH NO  
SIGNIFICANT WEATHER AND/OR S TO VISIBILITY
.  
 
!FLZ017-115-028-034-025-051100   
..NORTH FLORIDA
 
 
 
CITY SKY/WX TMP DP RH WIND PRES REMARKS
 
TALL INTL ARPT CLEAR 40 38 93 NW3 30.02R  
FSU LOVE BLDG N/A 52 43 71 N2 N/A  
APALACHICOLA CLEAR 51 50 96 N3 30.02R  
PERRY NOT AVBL  
CROSS CITY CLEAR N/A N/A N/A CALM 30.00F  
JACKSONVILLE CLEAR 45 42 89 W3 29.98R  

 
 
!FLZ112-006-005-002-011-051100   
..FLORIDA PANHANDLE
 
 
 
CITY SKY/WX TMP DP RH WIND PRES REMARKS
 
MARIANNA CLEAR 45 41 86 CALM 30.02R  
BONIFAY FAIR 43 41 93 CALM 30.04R  
PANAMA CITY NW FAIR 45 43 93 CALM 30.02R  
TYNDALL AFB CLEAR 51 45 80 N6 30.02R  
TYND DRONE APT FAIR 51 46 80 N7 30.03R  
DE FUNIAK SPR FAIR 45 40 85 CALM 30.03F  
EGLIN AFB PTCLDY 45 40 80 N6 30.02S WCI 42  
DESTIN PTCLDY 55 42 61 N3 30.02S  
HURLBURT CLEAR 45 42 88 N8 30.01S WCI 41  
CRESTVIEW PTCLDY 38 36 92 CALM 30.04F  
PENSACOLA PTCLDY 49 42 77 N6 30.02F  

 
 
!ALZ063-066-051100   
..SOUTH ALABAMA
 
 
 
CITY SKY/WX TMP DP RH WIND PRES REMARKS
 
DOTHAN CLEAR 45 38 76 N6 30.06R WCI 42  
OZARK CAIRNS CLEAR 46 38 73 N5 30.03S WCI 44  
FT RUCKER HELI CLEAR 38 37 98 CALM 30.03S  
RUCKER HELI 3 FAIR 46 39 75 N6 30.02S WCI 43  
RUCKER HELI 2 FAIR 42 39 90 CALM 30.02R  
FLORALA APT NOT AVBL  
ANDALUSIA CLEAR 47 39 74 CALM 30.04S  
TROY CLEAR 41 35 79 CALM 30.06R  
EUFALA FAIR 39 36 89 CALM 30.05S  
MOBILE CLEAR 40 40 100 NW3 30.04S  

 
 
!GAZ120>161-051100   
..SOUTHWEST AND SOUTH CENTRAL GEORGIA
 
 
 
CITY SKY/WX TMP DP RH WIND PRES REMARKS
 
THOMASVILLE FAIR 43 41 93 CALM 30.05R  
BAINBRIDGE CLEAR 43 42 97 CALM 30.05R  
MOODY AFB CLEAR 45 38 78 CALM 30.01R  
VALDOSTA CLEAR 41 38 89 CALM 30.02R  
MOULTRIE CLEAR 43 41 93 CALM 30.04R  
BLAKELY CLEAR 41 37 87 CALM 30.04R  
ALBANY CLEAR 43 40 89 CALM 30.06R  
TIFTON FAIR 44 40 88 CALM 30.03R  
FITZGERALD FAIR 51 34 53 N6 30.03R  
CORDELE FAIR 41 38 89 CALM 30.05R  
AMERICUS FAIR 52 34 50 N6 30.06R  
HOMERVILLE FAIR 41 37 87 CALM 30.02R  

 
 
!GMZ750-755-770-775-051100   
..COASTAL AND BUOY OBS
 
 
 
STATION/POSITION TIME TEMP WIND PRES VSBY WAVE
 
AIR SEA DIR/SP/G HT/PER  
(UTC) (F) (DEG/KT/KT) (MB) (MI) (FT/S)  
KEATON BEACH 1000 53 20/ 3/ 6 1016.5R  
CEDAR KEY 1000 57 360/ 3/ 4 1015.7S  
C TOWER 1000 61 350/ 11/ 11 1016.4R  
APALACHICOLA BUO 1000 350/ 8/ 10 1016.8  
PANAMA CITY BUOY 1000 67 40/ 8/ 12 1016.1  
MOBILE BUOY NOT AVBL  
ORANGE BCH AL BU 1000 59 62 1017.2  

 
 
 
CLICK HERE TO GO TO PREVIOUS BULLETINS.

The Nexlab FL Page
The Nexlab GA Page
The Nexlab AL Page Main Text Page